Regional Weather Roundup
Issued by NWS

Home | Current Version | Previous Version | Graphics & Text | Print | Product List | Glossary On
Versions: 1 2 3 4 5 6 7 8 9 10 11 12 13 14 15 16 17 18 19 20 21 22 23 24 25 26 27 28 29 30 31 32 33 34 35 36 37 38 39 40 41 42 43 44 45 46 47 48 49
000
ASUS45 KSLC 251710
RWRUT

UTAH REGIONAL WEATHER ROUNDUP
NATIONAL WEATHER SERVICE SALT LAKE CITY UT
1100 AM MDT SAT APR 25 2015

UTZ001>011-023>025-251800-

NORTHERN UTAH

CITY           SKY/WX    TMP DP  RH WIND       PRES   REMARKS
BRIGHAM CITY   MOSUNNY   50  35  56 SW5       29.82S
HILL AFB       NOT AVBL
LOGAN          SUNNY     49  34  56 CALM      29.81F
OGDEN          MOSUNNY   51  31  46 VRB5      29.79F
PROVO AIRPORT  PTSUNNY   50  41  71 VRB5      29.82F
SALT LAKE CITY PTSUNNY   51  38  60 S8        29.79F
VERNAL         MOSUNNY   50  36  58 SW5       29.82S
WENDOVER       CLOUDY    50  30  46 NE8       29.78F
HEBER CITY     PTSUNNY   43  36  75 CALM      29.83S
WEST JORDAN    PTSUNNY   52  41  66 SE10      29.81F

$$

UTZ012>022-026-027-251800-

SOUTHERN/CENTRAL UTAH

CITY           SKY/WX    TMP DP  RH WIND       PRES   REMARKS
BLANDING       CLOUDY    50  38  63 S10       29.97S
BRYCE CANYON   CLOUDY    41  39  93 SE12      29.88F
CEDAR CITY     CLOUDY    50  40  68 SW16G26   29.78F
DELTA          MOSUNNY   53  40  61 S9        29.79F
HANKSVILLE     PTSUNNY   59  43  55 S6        29.83F
MILFORD        CLOUDY    53  28  38 SW12      29.78F
MOAB/CYNLANDS  MOSUNNY   55  47  74 SE14      29.82F
PRICE          CLOUDY    50  34  54 SE10      29.83F
ST GEORGE      CLOUDY    55  46  71 NW5       29.80F

$$

REGIONAL REPORTS     COLORADO/ARIZONA

CITY           SKY/WX    TMP DP  RH WIND       PRES   REMARKS
CRAIG, CO      LGT RAIN  35  33  92 S9        29.89F FOG     WCI  28
GRAND JUNCTION CLOUDY    46  41  82 E3        29.88S
RIFLE          LGT RAIN  42  38  85 W15       29.89S
MONTROSE       CLOUDY    53  35  50 W10       29.88S
CORTEZ         PTSUNNY   54  38  54 S13       29.92S
PAGE, AZ       MOSUNNY   61  38  42 W5        29.83F
GRAND CANYON   CLOUDY    46  36  68 S18G28    29.93S
KINGMAN        MOSUNNY   63  32  31 S28G37    29.86R
FLAGSTAFF      LGT RAIN  40  39  97 SW13G22   29.98S WCI  32

$$

REGIONAL REPORTS    NEVADA/IDAHO/WYOMING

CITY           SKY/WX    TMP DP  RH WIND       PRES   REMARKS
LAS VEGAS, NV  CLOUDY    62  32  32 S21G26    29.74R
ELY            CLOUDY    46  36  68 S14       29.76F
ELKO           LGT RAIN  36  33  89 NE6       29.75F WCI  31
POCATELLO, ID  MOSUNNY   49  32  52 W8        29.82F
BURLEY         PTSUNNY   48  30  49 N5        29.79F
EVANSTON, WY   PTSUNNY   41  29  62 SW9       29.84R
ROCK SPRINGS   PTSUNNY   44  28  53 W18       29.82S
KEMMERER       PTSUNNY   41  30  65 W14       29.84R

$$



USA.gov is the U.S. government's official web portal to all federal, state and local government web resources and services.